| time (UTC) | temp C | wind direction | speed KPH | gust KPH | rain 1hr cm | rain 24hr cm | rain mn cm | humidity % | barometer mb |
| 20260505024804 | 18 | 33 | 8.0 | 19.3 | 0.00 | 0.00 | 0.00 | 16 | 1031.7 |
| 20260505021804 | 18 | 69 | 9.7 | 19.3 | 0.00 | 0.00 | 0.00 | 27 | 1031.9 |
| 20260505020805 | 18 | 54 | 12.9 | 19.3 | 0.00 | 0.00 | 0.00 | 41 | 1031.8 |
| 20260505020304 | 18 | 52 | 11.3 | 19.3 | 0.00 | 0.00 | 0.00 | 40 | 1031.8 |
| 20260505015805 | 18 | 49 | 8.0 | 22.5 | 0.00 | 0.00 | 0.00 | 35 | 1031.8 |
| 20260505014805 | 18 | 50 | 14.5 | 19.3 | 0.00 | 0.00 | 0.00 | 46 | 1031.9 |
| 20260505014304 | 18 | 50 | 8.0 | 22.5 | 0.00 | 0.00 | 0.00 | 42 | 1031.9 |
| 20260505012806 | 18 | 32 | 12.9 | 25.7 | 0.00 | 0.00 | 0.00 | 43 | 1032.0 |
| 20260505012305 | 18 | 51 | 8.0 | 14.5 | 0.00 | 0.00 | 0.00 | 34 | 1032.0 |
| 20260505011805 | 18 | 73 | 11.3 | 19.3 | 0.00 | 0.00 | 0.00 | 38 | 1032.1 |
| 20260505011305 | 18 | 55 | 8.0 | 16.1 | 0.00 | 0.00 | 0.00 | 35 | 1032.1 |
| 20260505010805 | 18 | 58 | 11.3 | 16.1 | 0.00 | 0.00 | 0.00 | 32 | 1032.3 |
| 20260505005804 | 17 | 65 | 9.7 | 19.3 | 0.00 | 0.00 | 0.00 | 30 | 1032.5 |
| 20260505004805 | 17 | 44 | 11.3 | 19.3 | 0.00 | 0.00 | 0.00 | 27 | 1032.7 |
| 20260505004305 | 17 | 27 | 9.7 | 19.3 | 0.00 | 0.00 | 0.00 | 25 | 1032.8 |
| 20260505003804 | 17 | 45 | 9.7 | 19.3 | 0.00 | 0.00 | 0.00 | 21 | 1032.8 |
| 20260505002804 | 17 | 52 | 11.3 | 19.3 | 0.00 | 0.00 | 0.00 | 15 | 1033.0 |
| 20260505000305 | 17 | 72 | 11.3 | 20.9 | 0.00 | 0.00 | 0.00 | 33 | 1033.2 |
| 20260504232805 | 17 | 45 | 9.7 | 19.3 | 0.00 | 0.00 | 0.00 | 33 | 1033.6 |
| 20260504231805 | 17 | 51 | 4.8 | 14.5 | 0.00 | 0.00 | 0.00 | 11 | 1033.7 |
| 20260504231305 | 17 | 38 | 8.0 | 14.5 | 0.00 | 0.00 | 0.00 | 8 | 1033.8 |
| 20260504230807 | 17 | 58 | 8.0 | 12.9 | 0.00 | 0.00 | 0.00 | 4 | 1033.9 |
| 20260504230307 | 17 | 44 | 8.0 | 12.9 | 0.00 | 0.00 | 0.00 | 4 | 1034.0 |
| 20260504225805 | 17 | 51 | 8.0 | 14.5 | 0.00 | 0.00 | 0.00 | 4 | 1034.0 |
| 20260504224805 | 17 | 57 | 9.7 | 16.1 | 0.00 | 0.00 | 0.00 | 4 | 1034.2 |
| 20260504224307 | 17 | 51 | 9.7 | 16.1 | 0.00 | 0.00 | 0.00 | 4 | 1034.2 |
| 20260504223807 | 17 | 63 | 8.0 | 12.9 | 0.00 | 0.00 | 0.00 | 4 | 1034.2 |
| 20260504223305 | 17 | 45 | 6.4 | 14.5 | 0.00 | 0.00 | 0.00 | 4 | 1034.2 |
| 20260504221805 | 16 | 47 | 4.8 | 11.3 | 0.00 | 0.00 | 0.00 | 4 | 1034.3 |
| 20260504221307 | 16 | 81 | 8.0 | 11.3 | 0.00 | 0.00 | 0.00 | 4 | 1034.2 |
| 20260504220806 | 16 | 76 | 4.8 | 11.3 | 0.00 | 0.00 | 0.00 | 4 | 1034.3 |
| 20260504215804 | 16 | 67 | 4.8 | 12.9 | 0.00 | 0.00 | 0.00 | 4 | 1034.4 |
| 20260504213304 | 15 | 60 | 3.2 | 4.8 | 0.00 | 0.00 | 0.00 | 4 | 1034.4 |
| 20260504212805 | 15 | 48 | 3.2 | 4.8 | 0.00 | 0.00 | 0.00 | 4 | 1034.4 |
| 20260504212306 | 15 | 81 | 1.6 | 4.8 | 0.00 | 0.00 | 0.00 | 4 | 1034.3 |
| 20260504211805 | 15 | 89 | 1.6 | 4.8 | 0.00 | 0.00 | 0.00 | 4 | 1034.3 |
| 20260504211305 | 15 | 118 | 3.2 | 8.0 | 0.00 | 0.00 | 0.00 | 4 | 1034.3 |
| 20260504210305 | 15 | 126 | 6.4 | 9.7 | 0.00 | 0.00 | 0.00 | 4 | 1034.3 |
| 20260504205806 | 15 | 118 | 6.4 | 11.3 | 0.00 | 0.00 | 0.00 | 4 | 1034.2 |
| 20260504203306 | 15 | 116 | 1.6 | 4.8 | 0.00 | 0.00 | 0.00 | 4 | 1034.5 |
| 20260504202807 | 14 | 115 | 3.2 | 4.8 | 0.00 | 0.00 | 0.00 | 4 | 1034.4 |
| 20260504202305 | 14 | 130 | 0.0 | 3.2 | 0.00 | 0.00 | 0.00 | 4 | 1034.5 |
| 20260504201805 | 14 | 138 | 1.6 | 4.8 | 0.00 | 0.00 | 0.00 | 4 | 1034.4 |
| 20260504201305 | 14 | 165 | 1.6 | 4.8 | 0.00 | 0.00 | 0.00 | 4 | 1034.4 |
| 20260504200804 | 14 | 116 | 0.0 | 3.2 | 0.00 | 0.00 | 0.00 | 4 | 1034.3 |
| 20260504195805 | 14 | 135 | 0.0 | 1.6 | 0.00 | 0.00 | 0.00 | 4 | 1034.2 |
| 20260504194305 | 14 | 151 | 0.0 | 4.8 | 0.00 | 0.00 | 0.00 | 4 | 1034.1 |
| 20260504185805 | 13 | 133 | 0.0 | 1.6 | 0.00 | 0.00 | 0.00 | 4 | 1034.1 |
| 20260504184805 | 13 | 130 | 0.0 | 1.6 | 0.00 | 0.00 | 0.00 | 4 | 1034.1 |
| 20260504184305 | 13 | 131 | 0.0 | 1.6 | 0.00 | 0.00 | 0.00 | 4 | 1034.1 |
| 20260504183305 | 13 | 139 | 0.0 | 3.2 | 0.00 | 0.00 | 0.00 | 4 | 1034.0 |
| 20260504182305 | 13 | 156 | 0.0 | 1.6 | 0.00 | 0.00 | 0.00 | 4 | 1034.0 |
| 20260504181306 | 13 | 114 | 1.6 | 4.8 | 0.00 | 0.00 | 0.00 | 4 | 1034.1 |
| 20260504180807 | 13 | 117 | 3.2 | 4.8 | 0.00 | 0.00 | 0.00 | 4 | 1034.0 |
| 20260504175804 | 13 | 129 | 3.2 | 4.8 | 0.00 | 0.00 | 0.00 | 4 | 1034.0 |
| 20260504175305 | 13 | 126 | 3.2 | 4.8 | 0.00 | 0.00 | 0.00 | 4 | 1034.0 |
| 20260504174805 | 13 | 123 | 0.0 | 3.2 | 0.00 | 0.00 | 0.00 | 4 | 1034.0 |
| 20260504174304 | 13 | 131 | 1.6 | 4.8 | 0.00 | 0.00 | 0.00 | 4 | 1034.0 |
| 20260504172804 | 13 | 118 | 1.6 | 4.8 | 0.00 | 0.00 | 0.00 | 4 | 1033.9 |
| 20260504171305 | 13 | 105 | 1.6 | 3.2 | 0.00 | 0.00 | 0.00 | 4 | 1033.9 |
| 20260504150805 | 13 | 118 | 3.2 | 4.8 | 0.00 | 0.00 | 0.00 | 4 | 1034.2 |
| 20260504140807 | 13 | 104 | 1.6 | 4.8 | 0.00 | 0.00 | 0.00 | 4 | 1034.8 |
| 20260504130306 | 13 | 112 | 1.6 | 1.6 | 0.00 | 0.00 | 0.00 | 11 | 1035.3 |
| 20260504120305 | 14 | 127 | 1.6 | 3.2 | 0.00 | 0.00 | 0.00 | 27 | 1035.4 |
| 20260504100305 | 13 | 102 | 3.2 | 4.8 | 0.00 | 0.00 | 0.00 | 4 | 1035.4 |
| 20260504081806 | 13 | 97 | 1.6 | 4.8 | 0.00 | 0.00 | 0.00 | 18 | 1035.1 |
| 20260504081307 | 13 | 94 | 1.6 | 4.8 | 0.00 | 0.00 | 0.00 | 18 | 1035.1 |
| 20260504080305 | 13 | 105 | 1.6 | 4.8 | 0.00 | 0.00 | 0.00 | 19 | 1035.2 |
| 20260504070307 | 14 | 74 | 1.6 | 1.6 | 0.00 | 0.00 | 0.00 | 44 | 1034.7 |
| 20260504050305 | 17 | 61 | 4.8 | 11.3 | 0.00 | 0.00 | 0.00 | 64 | 1033.9 |
| 20260504045806 | 17 | 59 | 4.8 | 9.7 | 0.00 | 0.00 | 0.00 | 64 | 1033.8 |
| 20260504045305 | 17 | 32 | 4.8 | 9.7 | 0.00 | 0.00 | 0.00 | 64 | 1033.8 |
| 20260504044805 | 18 | 58 | 3.2 | 8.0 | 0.00 | 0.00 | 0.00 | 63 | 1033.7 |
| 20260504043306 | 18 | 65 | 3.2 | 9.7 | 0.00 | 0.00 | 0.00 | 63 | 1033.7 |
| 20260504040805 | 18 | 53 | 4.8 | 9.7 | 0.00 | 0.00 | 0.00 | 65 | 1034.0 |
| 20260504034804 | 18 | 33 | 6.4 | 9.7 | 0.00 | 0.00 | 0.00 | 63 | 1034.1 |
| 20260504034304 | 18 | 61 | 6.4 | 9.7 | 0.00 | 0.00 | 0.00 | 63 | 1034.1 |
| 20260504033805 | 18 | 61 | 8.0 | 16.1 | 0.00 | 0.00 | 0.00 | 63 | 1034.0 |
| 20260504031305 | 18 | 90 | 6.4 | 12.9 | 0.00 | 0.00 | 0.00 | 63 | 1034.1 |